Flag for Germany Weather past 2 weeks in Crailsheim, Baden-Württemberg, Germany

Now
52 °F

Scattered clouds.


Feels Like: 47 °F
Forecast: 38 / 59 °F
Wind: 16 mph from East

Location: Niederstetten

Current Time: Apr 19, 2015 at 1:26:24 PM

Latest Report: Apr 19, 2015 at 12:20 PM


Visibility: N/A

Pressure: 30.12 "Hg

Humidity: 35%

Dew point: 25 °F

Location of CrailsheimLocation

Historic Weather in Crailsheim — Graph

°F

Crailsheim temperature yesterday

Maximum temperature yesterday: 50 °F (at 3:20 PM)
Minimum temperature yesterday: 36 °F (at 6:20 AM)
Average temperature yesterday: 42 °F

Past Weeks' High & Low Weather Summary

 TemperatureHumidityPressure
High72 °F (Apr 15, 3:20 PM)100% (Apr 12, 8:20 AM)30.60 "Hg (Apr 12, 8:20 AM)
Low28 °F (Apr 5, 6:20 AM)24% (Apr 10, 4:20 PM)29.86 "Hg (Apr 17, 6:20 AM)
Average49 °F59%30.23 "Hg
* Reported Apr 4 11:20 AM — Apr 19 11:20 AM, Crailsheim, Weather by CustomWeather, © 2015

Note: Actual official high and low records may vary slightly from our data, if they occured in-between our weather recording intervals... More about our weather records

Advertising

Crailsheim weather history for previous 24 hours

 ConditionsComfort  
Time TempWeatherWind HumidityBarometerVisibility
11:20 AM
Sun, Apr 19
50 °FScattered clouds.14 mph40%30.12 "HgN/A
10:20 AM46 °FScattered clouds.16 mph46%30.15 "HgN/A
9:20 AM45 °FScattered clouds.12 mph49%30.15 "HgN/A
8:20 AM39 °FScattered clouds.8 mph61%30.15 "HgN/A
7:20 AM36 °FPassing clouds.6 mph65%30.15 "HgN/A
6:20 AM34 °FPassing clouds.9 mph65%30.15 "HgN/A
5:20 AM36 °FPassing clouds.8 mph60%30.15 "HgN/A
4:20 AM36 °FPassing clouds.7 mph65%30.15 "HgN/A
3:20 AM36 °FPassing clouds.6 mph65%30.18 "HgN/A
2:20 AM37 °FChilly.5 mph60%30.21 "HgN/A
1:20 AM36 °FChilly.7 mph65%30.21 "HgN/A
12:20 AM37 °FChilly.3 mph60%30.21 "HgN/A
11:20 PM
Sat, Apr 18
39 °FChilly.3 mph56%30.21 "HgN/A
10:20 PM39 °FChilly.3 mph61%30.21 "HgN/A
9:20 PM41 °FPassing clouds.5 mph57%30.21 "HgN/A
8:20 PM43 °FPassing clouds.3 mph53%30.21 "HgN/A
7:20 PM46 °FPassing clouds.7 mph46%30.21 "HgN/A
6:20 PM48 °FPassing clouds.6 mph43%30.21 "HgN/A
5:20 PM50 °FScattered clouds.8 mph43%30.21 "HgN/A
4:20 PM50 °FScattered clouds.7 mph40%30.21 "HgN/A
3:20 PM50 °FScattered clouds.8 mph43%30.24 "HgN/A
2:20 PM48 °FScattered clouds.9 mph46%30.24 "HgN/A
1:20 PM48 °FScattered clouds.8 mph50%30.24 "HgN/A
Weather by CustomWeather, © 2015

See weather overviewHow to use our weather pages